When you browse on this site, cookies collect data to enhance your experience and personalize the content and advertising you see.
Visit our Privacy Policy to learn more. By continuing to use the site, you agree to this use of cookies and data.
  • In Latvia
  • List of Countries
  • For 7 days
  • Water Temperature
  • Weather Map
  • Weather Widgets
  • user-avatar
    Login

    Hourly Weather Tappita

    Today, 6 June, Saturday

    Time Temperature Precipitation Wind Pressure Humidity
    00:00 +22°C° 0 mm 0 mps 739 mmHg 98%
    01:00 +22°C° 0 mm 0 mps 739 mmHg 99%
    02:00 +22°C° 0 mm 0 mps 738 mmHg 99%
    03:00 +22°C° 0 mm 0 mps 739 mmHg 99%
    04:00 +22°C° 0 mm 0 mps 739 mmHg 99%
    05:00 +22°C° 0 mm 0 mps 739 mmHg 98%
    06:00 +24°C° 0 mm 0 mps 739 mmHg 93%
    07:00 +25°C° 0 mm 0 mps 740 mmHg 88%
    08:00 +26°C° 0 mm 0 mps 740 mmHg 83%
    09:00 +28°C° 0.1 mm 0 mps 740 mmHg 74%
    10:00 +30°C° 0.1 mm 0 mps 740 mmHg 65%
    11:00 +34°C° 0.1 mm 1 mps 739 mmHg 57%
    12:00 +33°C° 1.3 mm 1 mps 739 mmHg 64%
    13:00 +32°C° 1.3 mm 1 mps 738 mmHg 71%
    14:00 +31°C° 1.3 mm 1 mps 737 mmHg 78%
    15:00 +30°C° 1.2 mm 1 mps 737 mmHg 84%
    16:00 +28°C° 1.2 mm 1 mps 738 mmHg 89%
    17:00 +27°C° 1.2 mm 1 mps 738 mmHg 94%
    18:00 +27°C° 0.9 mm 1 mps 738 mmHg 95%
    19:00 +26°C° 0.9 mm 1 mps 739 mmHg 96%
    20:00 +25°C° 0.9 mm 1 mps 740 mmHg 97%
    21:00 +25°C° 0 mm 1 mps 740 mmHg 98%
    22:00 +25°C° 0 mm 1 mps 740 mmHg 98%
    23:00 +22°C° 0 mm 0 mps 740 mmHg 99%

    Tomorrow, 7 June, Sunday

    Time Temperature Precipitation Wind Pressure Humidity
    00:00 +22°C° 0 mm 0 mps 739 mmHg 99%
    01:00 +22°C° 0 mm 0 mps 739 mmHg 99%
    02:00 +22°C° 0 mm 0 mps 738 mmHg 99%
    03:00 +22°C° 0.2 mm 0 mps 738 mmHg 99%
    04:00 +22°C° 0.2 mm 0 mps 739 mmHg 99%
    05:00 +22°C° 0.2 mm 0 mps 739 mmHg 99%
    06:00 +23°C° 0 mm 0 mps 739 mmHg 95%
    07:00 +24°C° 0 mm 0 mps 739 mmHg 91%
    08:00 +26°C° 0 mm 0 mps 740 mmHg 86%
    09:00 +27°C° 0.9 mm 0 mps 739 mmHg 84%
    10:00 +27°C° 0.9 mm 0 mps 739 mmHg 81%
    11:00 +28°C° 0.9 mm 0 mps 739 mmHg 78%
    12:00 +30°C° 2.2 mm 1 mps 739 mmHg 82%
    13:00 +29°C° 2.2 mm 1 mps 738 mmHg 85%
    14:00 +29°C° 2.2 mm 2 mps 738 mmHg 89%
    15:00 +28°C° 2.2 mm 2 mps 738 mmHg 92%
    16:00 +26°C° 2.2 mm 2 mps 738 mmHg 94%
    17:00 +25°C° 2.2 mm 2 mps 738 mmHg 96%
    18:00 +25°C° 0.1 mm 2 mps 738 mmHg 97%
    19:00 +24°C° 0.1 mm 1 mps 739 mmHg 97%
    20:00 +24°C° 0.1 mm 1 mps 739 mmHg 98%
    21:00 +22°C° 0 mm 0 mps 739 mmHg 98%
    22:00 +22°C° 0 mm 0 mps 739 mmHg 98%
    23:00 +21°C° 0 mm 0 mps 739 mmHg 98%

    Day after tomorrow, 8 June, Monday

    Time Temperature Precipitation Wind Pressure Humidity
    00:00 +21°C° 0 mm 0 mps 739 mmHg 98%
    01:00 +21°C° 0 mm 0 mps 738 mmHg 98%
    02:00 +21°C° 0 mm 0 mps 738 mmHg 98%
    03:00 +21°C° 0 mm 0 mps 738 mmHg 99%
    04:00 +21°C° 0 mm 0 mps 738 mmHg 99%
    05:00 +21°C° 0 mm 0 mps 738 mmHg 99%
    06:00 +22°C° 0 mm 0 mps 738 mmHg 95%
    07:00 +23°C° 0 mm 0 mps 739 mmHg 91%
    08:00 +25°C° 0 mm 0 mps 739 mmHg 87%
    09:00 +26°C° 0 mm 0 mps 739 mmHg 81%
    10:00 +27°C° 0 mm 0 mps 738 mmHg 74%
    11:00 +28°C° 0 mm 0 mps 738 mmHg 67%
    12:00 +29°C° 0 mm 0 mps 738 mmHg 64%
    13:00 +32°C° 0 mm 1 mps 737 mmHg 62%
    14:00 +32°C° 0 mm 1 mps 737 mmHg 59%
    15:00 +31°C° 0.1 mm 1 mps 737 mmHg 64%
    16:00 +31°C° 0.1 mm 1 mps 737 mmHg 69%
    17:00 +30°C° 0.1 mm 1 mps 737 mmHg 74%
    18:00 +28°C° 1.2 mm 1 mps 737 mmHg 82%
    19:00 +26°C° 1.2 mm 1 mps 738 mmHg 89%
    20:00 +25°C° 1.2 mm 1 mps 738 mmHg 96%
    21:00 +25°C° 0 mm 1 mps 738 mmHg 96%
    22:00 +24°C° 0 mm 1 mps 739 mmHg 97%
    23:00 +24°C° 0 mm 1 mps 739 mmHg 98%

    9 June, Tuesday

    Time Temperature Precipitation Wind Pressure Humidity
    00:00 +22°C° 0 mm 0 mps 738 mmHg 98%
    01:00 +22°C° 0 mm 0 mps 738 mmHg 99%
    02:00 +22°C° 0 mm 0 mps 737 mmHg 99%
    03:00 +22°C° 0 mm 0 mps 737 mmHg 99%
    04:00 +22°C° 0 mm 0 mps 737 mmHg 99%
    05:00 +21°C° 0 mm 0 mps 738 mmHg 99%
    06:00 +23°C° 0 mm 0 mps 738 mmHg 95%
    07:00 +24°C° 0 mm 0 mps 738 mmHg 92%
    08:00 +25°C° 0 mm 0 mps 739 mmHg 88%
    09:00 +27°C° 0.1 mm 0 mps 739 mmHg 80%
    10:00 +30°C° 0.1 mm 1 mps 739 mmHg 72%
    11:00 +32°C° 0.1 mm 1 mps 739 mmHg 63%
    12:00 +31°C° 0.8 mm 1 mps 738 mmHg 67%
    13:00 +31°C° 0.8 mm 1 mps 737 mmHg 71%
    14:00 +30°C° 0.8 mm 1 mps 737 mmHg 74%
    15:00 +29°C° 1.1 mm 1 mps 737 mmHg 80%
    16:00 +28°C° 1.1 mm 1 mps 737 mmHg 86%
    17:00 +27°C° 1.1 mm 1 mps 736 mmHg 92%
    18:00 +26°C° 0.1 mm 1 mps 737 mmHg 94%
    19:00 +25°C° 0.1 mm 1 mps 737 mmHg 96%
    20:00 +25°C° 0.1 mm 1 mps 738 mmHg 99%
    21:00 +25°C° 0 mm 1 mps 738 mmHg 99%
    22:00 +24°C° 0 mm 1 mps 738 mmHg 99%
    23:00 +22°C° 0 mm 0 mps 738 mmHg 99%

    10 June, Wednesday

    Time Temperature Precipitation Wind Pressure Humidity
    00:00 +22°C° 0 mm 0 mps 738 mmHg 99%
    01:00 +22°C° 0 mm 0 mps 738 mmHg 99%
    02:00 +22°C° 0 mm 0 mps 737 mmHg 99%
    03:00 +22°C° 0 mm 0 mps 737 mmHg 98%
    04:00 +22°C° 0 mm 0 mps 737 mmHg 98%
    05:00 +22°C° 0 mm 0 mps 738 mmHg 98%
    06:00 +23°C° 0 mm 0 mps 738 mmHg 94%
    07:00 +24°C° 0 mm 0 mps 738 mmHg 90%
    08:00 +26°C° 0 mm 0 mps 739 mmHg 85%
    09:00 +26°C° 0.8 mm 0 mps 738 mmHg 83%
    10:00 +27°C° 0.8 mm 0 mps 738 mmHg 81%
    11:00 +30°C° 0.8 mm 1 mps 738 mmHg 79%
    12:00 +29°C° 2.1 mm 1 mps 737 mmHg 82%
    13:00 +29°C° 2.1 mm 1 mps 737 mmHg 85%
    14:00 +29°C° 2.1 mm 1 mps 737 mmHg 88%
    15:00 +27°C° 1.4 mm 1 mps 737 mmHg 91%
    16:00 +26°C° 1.4 mm 1 mps 737 mmHg 93%
    17:00 +25°C° 1.4 mm 1 mps 737 mmHg 96%
    18:00 +25°C° 2.1 mm 1 mps 738 mmHg 97%
    19:00 +25°C° 2.1 mm 1 mps 738 mmHg 97%
    20:00 +24°C° 2.1 mm 1 mps 739 mmHg 98%
    21:00 +24°C° 0.4 mm 1 mps 739 mmHg 98%
    22:00 +24°C° 0.4 mm 1 mps 739 mmHg 98%
    23:00 +24°C° 0.4 mm 1 mps 739 mmHg 98%

    11 June, Thursday

    Time Temperature Precipitation Wind Pressure Humidity
    00:00 +22°C° 0 mm 0 mps 739 mmHg 98%
    01:00 +21°C° 0 mm 0 mps 738 mmHg 98%
    02:00 +21°C° 0 mm 0 mps 738 mmHg 98%
    03:00 +21°C° 0 mm 0 mps 738 mmHg 98%
    04:00 +21°C° 0 mm 0 mps 738 mmHg 98%
    05:00 +21°C° 0 mm 0 mps 738 mmHg 98%
    06:00 +22°C° 0 mm 0 mps 738 mmHg 95%
    07:00 +23°C° 0 mm 0 mps 739 mmHg 92%
    08:00 +24°C° 0 mm 0 mps 739 mmHg 88%
    09:00 +27°C° 0 mm 0 mps 739 mmHg 78%
    10:00 +29°C° 0 mm 0 mps 739 mmHg 69%
    11:00 +31°C° 0 mm 0 mps 739 mmHg 59%
    12:00 +31°C° 0.1 mm 0 mps 738 mmHg 60%
    13:00 +31°C° 0.1 mm 0 mps 738 mmHg 61%
    14:00 +30°C° 0.1 mm 0 mps 737 mmHg 62%
    15:00 +30°C° 0.2 mm 0 mps 737 mmHg 66%
    16:00 +29°C° 0.2 mm 0 mps 737 mmHg 70%
    17:00 +28°C° 0.2 mm 0 mps 737 mmHg 73%
    18:00 +26°C° 0.2 mm 0 mps 737 mmHg 81%
    19:00 +27°C° 0.2 mm 1 mps 738 mmHg 88%
    20:00 +25°C° 0.2 mm 1 mps 738 mmHg 95%
    21:00 +25°C° 0 mm 1 mps 738 mmHg 96%
    22:00 +25°C° 0 mm 1 mps 738 mmHg 97%
    23:00 +22°C° 0 mm 0 mps 738 mmHg 98%
    Show more